�������l�o���
Date,Time,MP-1(��Sv/h),MP-2(��Sv/h),MP-3(��Sv/h),MP-4(��Sv/h),MP-5(��Sv/h),MP-6(��Sv/h),MP-7(��Sv/h),MP-8(��Sv/h),����,����(m/s),���J
2021/01/28,00:00,0.665,0.949,0.605,1.200,0.842,0.377,0.669,0.630,�k��,7.4,��
2021/01/28,00:10,0.665,0.949,0.605,1.201,0.843,0.377,0.668,0.629,�k��,8.2,��
2021/01/28,00:20,0.666,0.948,0.606,1.202,0.843,0.377,0.669,0.630,�k��,7.2,��
2021/01/28,00:30,0.664,0.949,0.604,1.200,0.842,0.376,0.668,0.629,�k�k��,6.9,��
2021/01/28,00:40,0.666,0.951,0.606,1.201,0.845,0.377,0.667,0.630,�k�k��,8.6,��
2021/01/28,00:50,0.664,0.948,0.604,1.201,0.843,0.378,0.669,0.631,�k�k��,8.3,��
2021/01/28,01:00,0.664,0.949,0.606,1.201,0.841,0.376,0.669,0.631,�k�k��,7.2,��
2021/01/28,01:10,0.664,0.948,0.604,1.202,0.843,0.377,0.669,0.631,�k�k��,6.8,��
2021/01/28,01:20,0.664,0.949,0.606,1.201,0.844,0.378,0.668,0.630,�k�k��,6.6,��
2021/01/28,01:30,0.664,0.949,0.605,1.202,0.844,0.377,0.668,0.630,�k�k��,6.2,��
2021/01/28,01:40,0.664,0.949,0.606,1.201,0.843,0.376,0.667,0.630,�k�k��,7.6,��
2021/01/28,01:50,0.666,0.950,0.605,1.201,0.843,0.376,0.669,0.630,�k�k��,7.9,��
2021/01/28,02:00,0.663,0.950,0.606,1.199,0.844,0.378,0.669,0.629,�k�k��,6.8,��
2021/01/28,02:10,0.666,0.948,0.605,1.202,0.842,0.378,0.668,0.630,�k�k��,7.7,��
2021/01/28,02:20,0.664,0.950,0.606,1.200,0.840,0.376,0.669,0.629,�k�k��,9.0,��
2021/01/28,02:30,0.666,0.950,0.606,1.202,0.842,0.376,0.668,0.630,�k�k��,8.9,��
2021/01/28,02:40,0.664,0.949,0.605,1.203,0.844,0.377,0.669,0.629,�k�k��,8.8,��
2021/01/28,02:50,0.664,0.950,0.605,1.203,0.844,0.375,0.670,0.630,�k�k��,8.5,��
2021/01/28,03:00,0.663,0.949,0.605,1.203,0.843,0.375,0.670,0.630,�k�k��,9.5,��
2021/01/28,03:10,0.665,0.949,0.606,1.202,0.842,0.375,0.669,0.630,�k�k��,10.2,��
2021/01/28,03:20,0.665,0.950,0.604,1.202,0.844,0.374,0.669,0.631,�k�k��,9.7,��
2021/01/28,03:30,0.663,0.947,0.604,1.204,0.842,0.377,0.669,0.630,�k�k��,10.0,��
2021/01/28,03:40,0.664,0.949,0.604,1.203,0.844,0.376,0.668,0.628,�k�k��,10.2,��
2021/01/28,03:50,0.665,0.947,0.605,1.203,0.842,0.377,0.669,0.631,�k�k��,8.8,��
2021/01/28,04:00,0.665,0.949,0.604,1.200,0.842,0.377,0.669,0.631,�k�k��,8.6,��
2021/01/28,04:10,0.663,0.950,0.604,1.202,0.842,0.376,0.670,0.629,�k�k��,8.9,��
2021/01/28,04:20,0.664,0.950,0.605,1.204,0.843,0.375,0.669,0.630,�k�k��,8.0,��
2021/01/28,04:30,0.663,0.948,0.606,1.202,0.842,0.377,0.668,0.630,�k,5.6,��
2021/01/28,04:40,0.664,0.950,0.605,1.203,0.843,0.377,0.670,0.629,�k�k��,6.7,��
2021/01/28,04:50,0.665,0.950,0.604,1.201,0.844,0.377,0.669,0.630,�k,6.2,��
2021/01/28,05:00,0.666,0.947,0.606,1.201,0.843,0.378,0.668,0.631,�k,7.3,��
2021/01/28,05:10,0.663,0.947,0.604,1.201,0.843,0.377,0.668,0.630,�k,7.0,��
2021/01/28,05:20,0.665,0.950,0.606,1.202,0.843,0.378,0.669,0.629,�k,6.4,��
2021/01/28,05:30,0.663,0.948,0.605,1.202,0.842,0.378,0.670,0.630,�k,7.3,��
2021/01/28,05:40,0.666,0.949,0.605,1.200,0.843,0.376,0.667,0.630,�k,7.5,��
2021/01/28,05:50,0.661,0.950,0.605,1.203,0.841,0.377,0.668,0.630,�k,7.0,��
2021/01/28,06:00,0.663,0.950,0.607,1.204,0.842,0.377,0.668,0.628,�k�k��,6.2,��
2021/01/28,06:10,0.663,0.951,0.604,1.201,0.844,0.377,0.669,0.629,�k�k��,7.0,��
2021/01/28,06:20,0.664,0.948,0.605,1.201,0.843,0.377,0.669,0.629,�k�k��,7.3,��
2021/01/28,06:30,0.663,0.948,0.607,1.202,0.841,0.376,0.668,0.630,�k�k��,7.7,��
2021/01/28,06:40,0.664,0.949,0.605,1.202,0.841,0.377,0.668,0.631,�k�k��,7.9,��
2021/01/28,06:50,0.663,0.949,0.605,1.202,0.843,0.377,0.669,0.629,�k�k��,6.9,��
2021/01/28,07:00,0.664,0.948,0.606,1.201,0.843,0.375,0.668,0.630,�k��,7.0,��
2021/01/28,07:10,0.663,0.950,0.604,1.199,0.841,0.378,0.669,0.630,�k�k��,7.7,��
2021/01/28,07:20,0.663,0.949,0.605,1.201,0.844,0.377,0.670,0.630,�k�k��,5.9,��
2021/01/28,07:30,0.663,0.948,0.604,1.199,0.843,0.377,0.668,0.628,�k�k��,7.2,��
2021/01/28,07:40,0.663,0.948,0.604,1.201,0.844,0.376,0.670,0.631,�k�k��,5.8,��
2021/01/28,07:50,0.663,0.948,0.605,1.204,0.843,0.377,0.670,0.631,�k�k��,6.7,��
2021/01/28,08:00,0.664,0.946,0.607,1.204,0.844,0.376,0.668,0.629,�k��,6.3,��
2021/01/28,08:10,0.663,0.948,0.607,1.203,0.840,0.377,0.669,0.630,�k�k��,6.4,��
2021/01/28,08:20,0.665,0.947,0.608,1.200,0.843,0.376,0.669,0.629,�k�k��,6.3,��
2021/01/28,08:30,0.664,0.946,0.606,1.201,0.842,0.377,0.671,0.631,�k�k��,6.5,��
2021/01/28,08:40,0.665,0.943,0.604,1.201,0.841,0.378,0.670,0.630,�k�k��,6.1,��
2021/01/28,08:50,0.665,0.947,0.606,1.204,0.844,0.376,0.670,0.630,�k�k��,7.3,��
2021/01/28,09:00,0.666,0.943,0.605,1.202,0.842,0.377,0.669,0.630,�k,6.2,��
2021/01/28,09:10,0.666,0.944,0.607,1.201,0.841,0.377,0.671,0.631,�k�k��,6.9,��
2021/01/28,09:20,0.666,0.946,0.606,1.201,0.843,0.377,0.671,0.632,�k�k��,6.0,��
2021/01/28,09:30,0.667,0.944,0.607,1.204,0.843,0.376,0.670,0.630,�k�k��,7.6,��
2021/01/28,09:40,0.665,0.946,0.607,1.201,0.843,0.376,0.671,0.631,�k,7.7,��
2021/01/28,09:50,0.666,0.947,0.608,1.201,0.844,0.377,0.669,0.632,�k,7.1,��
2021/01/28,10:00,0.664,0.947,0.605,1.203,0.843,0.376,0.670,0.632,�k,7.2,��
2021/01/28,10:10,0.667,0.945,0.607,1.202,0.844,0.378,0.668,0.632,�k,8.4,��
2021/01/28,10:20,0.667,0.945,0.607,1.203,0.844,0.378,0.670,0.632,�k�k��,7.2,��
2021/01/28,10:30,0.666,0.948,0.606,1.202,0.843,0.377,0.669,0.632,�k,7.4,��
2021/01/28,10:40,0.666,0.945,0.608,1.205,0.845,0.379,0.669,0.632,�k�k��,7.1,��
2021/01/28,10:50,0.666,0.946,0.607,1.203,0.845,0.379,0.667,0.631,�k,7.0,��
2021/01/28,11:00,0.666,0.947,0.607,1.204,0.846,0.379,0.667,0.632,�k�k��,7.4,��
2021/01/28,11:10,0.664,0.948,0.607,1.200,0.844,0.377,0.668,0.631,�k,7.9,��
2021/01/28,11:20,0.668,0.948,0.607,1.206,0.845,0.377,0.668,0.631,�k,8.2,��
2021/01/28,11:30,0.663,0.947,0.608,1.202,0.845,0.377,0.666,0.630,�k�k��,7.0,��
2021/01/28,11:40,0.665,0.951,0.607,1.204,0.845,0.378,0.667,0.629,�k�k��,7.9,��
2021/01/28,11:50,0.664,0.948,0.608,1.203,0.846,0.376,0.666,0.633,�k,8.4,��
2021/01/28,12:00,0.666,0.951,0.607,1.204,0.845,0.378,0.669,0.632,�k,8.2,��
2021/01/28,12:10,0.665,0.952,0.607,1.202,0.846,0.379,0.668,0.631,�k,7.6,��
2021/01/28,12:20,0.666,0.953,0.607,1.206,0.846,0.377,0.666,0.632,�k,5.9,��
2021/01/28,12:30,0.665,0.950,0.607,1.202,0.844,0.377,0.670,0.631,�k,6.5,��
2021/01/28,12:40,0.666,0.949,0.608,1.203,0.847,0.378,0.668,0.632,�k,6.8,��
2021/01/28,12:50,0.667,0.947,0.608,1.204,0.845,0.376,0.668,0.633,�k�k��,7.8,��
2021/01/28,13:00,0.665,0.948,0.608,1.206,0.847,0.377,0.668,0.631,�k�k��,6.2,��
2021/01/28,13:10,0.667,0.950,0.607,1.204,0.848,0.377,0.668,0.630,�k�k��,5.8,��
2021/01/28,13:20,0.666,0.948,0.606,1.204,0.846,0.377,0.670,0.630,�k�k��,7.3,��
2021/01/28,13:30,0.668,0.951,0.608,1.204,0.847,0.378,0.669,0.630,�k�k��,6.4,��
2021/01/28,13:40,0.666,0.948,0.608,1.206,0.845,0.380,0.669,0.631,�k�k��,6.3,��
2021/01/28,13:50,0.665,0.951,0.606,1.204,0.847,0.378,0.668,0.630,�k�k��,4.4,��
2021/01/28,14:00,0.666,0.947,0.607,1.203,0.846,0.380,0.669,0.630,�k�k��,3.8,��
2021/01/28,14:10,0.665,0.952,0.608,1.205,0.844,0.378,0.669,0.631,�k�k��,4.2,��
2021/01/28,14:20,0.666,0.949,0.608,1.204,0.846,0.378,0.671,0.630,�k�k��,4.4,��
2021/01/28,14:30,0.667,0.952,0.608,1.204,0.845,0.379,0.671,0.634,�k�k��,4.5,��
2021/01/28,14:40,0.668,0.952,0.607,1.207,0.847,0.378,0.671,0.630,�k�k��,3.7,��
2021/01/28,14:50,0.667,0.951,0.609,1.205,0.849,0.378,0.669,0.632,�k�k��,5.2,�L
2021/01/28,15:00,0.665,0.952,0.606,1.204,0.847,0.378,0.671,0.632,�k�k��,5.4,��
2021/01/28,15:10,0.667,0.949,0.608,1.207,0.847,0.379,0.670,0.631,�k��,5.3,�L
2021/01/28,15:20,0.666,0.951,0.609,1.202,0.847,0.378,0.671,0.631,�k��,5.4,�L
2021/01/28,15:30,0.666,0.952,0.608,1.207,0.848,0.379,0.671,0.632,�k��,5.0,�L
2021/01/28,15:40,0.666,0.953,0.608,1.208,0.848,0.380,0.673,0.633,�k�k��,4.7,�L
2021/01/28,15:50,0.666,0.953,0.608,1.206,0.847,0.382,0.672,0.632,�k�k��,5.2,�L
2021/01/28,16:00,0.668,0.954,0.609,1.208,0.849,0.380,0.671,0.633,�k�k��,5.5,�L
2021/01/28,16:10,0.667,0.951,0.610,1.206,0.847,0.381,0.673,0.633,�k�k��,5.8,�L
2021/01/28,16:20,0.666,0.954,0.611,1.206,0.848,0.380,0.672,0.632,�k�k��,5.3,�L
2021/01/28,16:30,0.669,0.954,0.609,1.207,0.846,0.379,0.671,0.631,�k�k��,4.2,�L
2021/01/28,16:40,0.667,0.956,0.609,1.206,0.848,0.380,0.671,0.632,�k��,5.4,��
2021/01/28,16:50,0.667,0.953,0.610,1.209,0.846,0.377,0.672,0.631,�k��,5.0,��
2021/01/28,17:00,0.666,0.953,0.609,1.208,0.847,0.378,0.670,0.632,�k��,6.2,��
2021/01/28,17:10,0.666,0.953,0.609,1.207,0.848,0.379,0.671,0.633,�k��,5.8,��
2021/01/28,17:20,0.666,0.955,0.608,1.207,0.846,0.379,0.673,0.632,�k��,4.9,��
2021/01/28,17:30,0.667,0.952,0.610,1.205,0.846,0.379,0.672,0.632,�k��,5.6,�L
2021/01/28,17:40,0.668,0.952,0.610,1.206,0.848,0.378,0.672,0.632,�k��,3.7,�L
2021/01/28,17:50,0.667,0.953,0.609,1.206,0.847,0.379,0.672,0.631,�k��,5.0,��
2021/01/28,18:00,0.666,0.952,0.607,1.206,0.848,0.379,0.673,0.632,�k��,4.1,�L
2021/01/28,18:10,0.666,0.953,0.609,1.205,0.846,0.377,0.673,0.633,�k��,4.6,�L
2021/01/28,18:20,0.667,0.953,0.607,1.208,0.846,0.380,0.672,0.632,�k�k��,3.2,�L
2021/01/28,18:30,0.669,0.954,0.610,1.207,0.847,0.381,0.671,0.632,�k��,5.5,�L
2021/01/28,18:40,0.669,0.955,0.609,1.207,0.845,0.379,0.672,0.632,�k��,5.8,�L
2021/01/28,18:50,0.667,0.953,0.609,1.207,0.848,0.380,0.673,0.631,�k��,5.4,�L
2021/01/28,19:00,0.670,0.956,0.610,1.206,0.848,0.382,0.672,0.632,�k��,4.3,�L
2021/01/28,19:10,0.670,0.957,0.612,1.208,0.849,0.382,0.672,0.632,�k��,6.0,�L
2021/01/28,19:20,0.670,0.954,0.610,1.209,0.849,0.382,0.672,0.632,�k��,5.3,�L
2021/01/28,19:30,0.670,0.955,0.610,1.208,0.847,0.384,0.671,0.630,�k��,5.5,�L
2021/01/28,19:40,0.669,0.953,0.613,1.204,0.846,0.384,0.672,0.632,�k��,4.5,�L
2021/01/28,19:50,0.669,0.949,0.610,1.205,0.846,0.384,0.670,0.631,�k��,5.2,�L
2021/01/28,20:00,0.668,0.950,0.608,1.206,0.842,0.381,0.671,0.632,�k��,5.4,�L
2021/01/28,20:10,0.666,0.948,0.607,1.204,0.844,0.382,0.671,0.630,�k��,5.1,�L
2021/01/28,20:20,0.667,0.947,0.606,1.202,0.842,0.381,0.671,0.631,�k��,6.4,�L
2021/01/28,20:30,0.665,0.944,0.604,1.202,0.840,0.382,0.671,0.630,�k��,5.7,�L
2021/01/28,20:40,0.666,0.945,0.604,1.200,0.841,0.381,0.670,0.630,�k��,5.7,�L
2021/01/28,20:50,0.665,0.945,0.604,1.202,0.841,0.380,0.670,0.630,�k��,6.8,�L
2021/01/28,21:00,0.664,0.945,0.603,1.202,0.839,0.381,0.669,0.630,�k��,6.1,�L
2021/01/28,21:10,0.663,0.943,0.602,1.198,0.839,0.379,0.669,0.631,�k��,6.3,�L
2021/01/28,21:20,0.665,0.943,0.604,1.199,0.840,0.378,0.669,0.629,�k��,5.7,�L
2021/01/28,21:30,0.662,0.942,0.603,1.199,0.837,0.379,0.670,0.630,�k��,6.3,�L
2021/01/28,21:40,0.663,0.943,0.604,1.196,0.840,0.379,0.669,0.628,�k��,6.5,�L
2021/01/28,21:50,0.664,0.940,0.605,1.196,0.836,0.379,0.670,0.629,�k��,5.8,�L
2021/01/28,22:00,0.663,0.941,0.605,1.198,0.839,0.380,0.671,0.630,�k��,6.0,�L
2021/01/28,22:10,0.662,0.939,0.605,1.198,0.837,0.379,0.669,0.629,�k��,5.8,�L
2021/01/28,22:20,0.661,0.941,0.605,1.198,0.838,0.378,0.669,0.630,�k��,6.5,�L
2021/01/28,22:30,0.663,0.939,0.604,1.197,0.837,0.379,0.670,0.628,�k��,6.8,�L
2021/01/28,22:40,0.664,0.941,0.602,1.200,0.837,0.380,0.670,0.630,�k��,6.6,�L
2021/01/28,22:50,0.664,0.941,0.604,1.196,0.836,0.380,0.670,0.629,�k��,7.2,�L
2021/01/28,23:00,0.662,0.939,0.604,1.195,0.834,0.382,0.668,0.630,�k��,6.7,�L
2021/01/28,23:10,0.662,0.935,0.602,1.196,0.834,0.383,0.668,0.630,�k��,6.6,�L
2021/01/28,23:20,0.662,0.935,0.602,1.194,0.832,0.381,0.670,0.629,�k��,6.9,�L
2021/01/28,23:30,0.661,0.935,0.602,1.193,0.835,0.381,0.671,0.628,�k��,6.5,�L
2021/01/28,23:40,0.661,0.935,0.601,1.193,0.832,0.381,0.668,0.628,�k��,6.5,�L
2021/01/28,23:50,0.662,0.935,0.603,1.192,0.833,0.379,0.668,0.629,�k��,6.4,�L
